DW7531 Weather Reports


time (UTC)temp
F
wind
direction
speed
knots
gust
knots
rain 1hr
in
rain 24hr
in
rain mn
in
humidity
%
barometer
mb
20260507150007 62 264 0.0 0.0 0.00 0.00 0.00 75 1015.2
20260507144502 60 264 0.0 0.0 0.00 0.00 0.00 77 1015.2
20260507143101 59 264 0.0 0.0 0.00 0.00 0.00 80 1015.2
20260507141610 57 264 0.0 0.0 0.00 0.00 0.00 82 1015.1
20260507140059 56 264 0.0 3.5 0.00 0.00 0.00 83 1015.1
20260507134549 54 264 0.0 0.0 0.00 0.00 0.00 84 1015.0
20260507133046 54 264 0.0 3.5 0.00 0.00 0.00 84 1014.8
20260507131538 53 264 0.0 0.0 0.00 0.00 0.00 84 1014.7
20260507130041 53 264 0.0 0.0 0.00 0.00 0.00 83 1014.7
20260507124536 53 264 0.0 0.0 0.00 0.00 0.00 83 1014.7
20260507123040 53 264 0.0 0.0 0.00 0.00 0.00 83 1014.8
20260507121531 53 264 0.0 0.0 0.00 0.00 0.00 82 1014.8
20260507120031 53 264 0.0 0.0 0.00 0.00 0.00 81 1014.9
20260507114529 54 264 0.0 0.0 0.00 0.00 0.00 81 1014.9
20260507113029 54 264 0.0 0.0 0.00 0.00 0.00 81 1014.9
20260507111526 54 264 0.0 0.0 0.00 0.00 0.00 81 1015.1
20260507110030 54 264 0.0 0.0 0.00 0.00 0.00 80 1015.2
20260507104522 54 264 0.0 0.0 0.00 0.00 0.00 80 1015.2
20260507103023 54 264 0.0 0.0 0.00 0.00 0.00 79 1015.3
20260507101519 55 264 0.0 0.0 0.00 0.00 0.00 78 1015.4
20260507100022 55 264 0.0 0.0 0.00 0.00 0.00 79 1015.4
20260507094518 55 264 0.0 0.0 0.00 0.00 0.00 78 1015.4
20260507093013 55 264 0.0 0.0 0.00 0.00 0.00 78 1015.6
20260507091511 56 264 0.0 0.0 0.00 0.00 0.00 77 1015.7
20260507090013 56 264 0.0 0.0 0.00 0.00 0.00 77 1015.8
20260507084513 56 264 0.0 0.0 0.00 0.00 0.00 76 1015.8
20260507083006 56 264 0.0 0.0 0.00 0.00 0.00 76 1016.0
20260507081505 57 264 0.0 0.0 0.00 0.00 0.00 75 1016.2
20260507080005 57 264 0.0 0.0 0.00 0.00 0.00 75 1016.2
20260507074501 57 264 0.0 0.0 0.00 0.00 0.00 74 1016.2
20260507073100 58 264 0.0 0.0 0.00 0.00 0.00 73 1016.2
20260507071609 58 264 0.0 0.0 0.00 0.00 0.00 73 1016.3
20260507070055 58 264 0.0 0.0 0.00 0.00 0.00 72 1016.5
20260507064608 59 264 0.0 0.0 0.00 0.00 0.00 71 1016.5
20260507063056 59 264 0.0 0.0 0.00 0.00 0.00 69 1016.5
20260507061554 60 264 0.0 0.0 0.00 0.00 0.00 69 1016.5
20260507060053 60 264 0.0 0.0 0.00 0.00 0.00 69 1016.6
20260507054606 60 264 0.0 0.0 0.00 0.00 0.00 69 1016.5
20260507053052 60 264 0.0 0.0 0.00 0.00 0.00 68 1016.5
20260507051554 61 264 0.0 0.0 0.00 0.00 0.00 66 1016.4
20260507050051 62 264 0.0 0.0 0.00 0.00 0.00 67 1016.4
20260507044552 62 264 0.0 0.0 0.00 0.00 0.00 66 1016.4
20260507043058 63 264 0.0 0.0 0.00 0.00 0.00 65 1016.3
20260507041602 63 264 0.0 1.7 0.00 0.00 0.00 65 1016.2
20260507040055 64 264 0.0 4.3 0.00 0.00 0.00 63 1015.9
20260507034553 64 264 0.0 4.3 0.00 0.00 0.00 62 1015.7
20260507033050 65 264 1.7 5.2 0.00 0.00 0.00 60 1015.5
20260507031550 66 265 2.6 7.8 0.00 0.00 0.00 59 1015.4
20260507030057 68 280 3.5 7.0 0.00 0.00 0.00 56 1015.2
20260507024548 69 286 0.9 6.1 0.00 0.00 0.00 53 1015.0
20260507023058 70 286 0.0 2.6 0.00 0.00 0.00 50 1014.9
20260507021551 72 287 0.0 5.2 0.00 0.00 0.00 48 1014.6
20260507020046 73 292 0.0 4.3 0.00 0.00 0.00 46 1014.5
20260507014557 74 302 0.0 2.6 0.00 0.00 0.00 45 1014.4
20260507013103 75 302 0.0 5.2 0.00 0.00 0.00 43 1014.3
20260507011544 76 263 0.0 7.0 0.00 0.00 0.00 43 1014.1
20260507010043 76 261 0.0 3.5 0.00 0.00 0.00 43 1014.1
20260507004542 77 262 1.7 7.0 0.00 0.00 0.00 43 1014.1
20260507003041 78 265 2.6 7.0 0.00 0.00 0.00 42 1014.0
20260507001554 78 257 0.0 4.3 0.00 0.00 0.00 42 1013.9
20260507000039 78 292 0.0 6.1 0.00 0.00 0.00 42 1013.8
20260506234538 78 348 0.0 8.7 0.00 0.00 0.00 41 1013.8
20260506233043 79 269 0.9 7.8 0.00 0.00 0.00 40 1013.9
20260506231540 79 342 1.7 7.0 0.00 0.00 0.00 40 1013.9
20260506230034 81 350 0.9 5.2 0.00 0.00 0.00 36 1014.0
20260506224533 81 298 1.7 6.1 0.00 0.00 0.00 36 1014.2
20260506223030 81 290 0.0 7.0 0.00 0.00 0.00 36 1014.4
20260506221529 80 293 2.6 7.0 0.00 0.00 0.00 35 1014.5
20260506220028 81 313 0.9 5.2 0.00 0.00 0.00 33 1014.7
20260506214524 79 267 1.7 7.0 0.00 0.00 0.00 37 1014.9
20260506213022 80 272 1.7 11.3 0.00 0.00 0.00 36 1015.1
20260506211520 79 286 0.0 6.1 0.00 0.00 0.00 40 1015.2
20260506210018 77 265 0.0 7.0 0.00 0.00 0.00 40 1015.5
20260506204518 79 247 0.0 7.0 0.00 0.00 0.00 38 1015.7
20260506203016 77 259 1.7 7.0 0.00 0.00 0.00 38 1015.7
20260506201512 77 317 0.9 7.8 0.00 0.00 0.00 39 1016.1
20260506200012 77 343 0.9 7.0 0.00 0.00 0.00 40 1016.3
20260506194511 79 11 0.9 5.2 0.00 0.00 0.00 39 1016.4
20260506193005 77 254 0.0 6.1 0.00 0.00 0.00 41 1016.7
20260506191502 78 189 0.0 2.6 0.00 0.00 0.00 41 1016.9
20260506190100 75 188 0.0 3.5 0.00 0.00 0.00 42 1017.0
20260506184557 74 186 0.0 3.5 0.00 0.00 0.00 42 1017.2
20260506183055 74 185 0.0 3.5 0.00 0.00 0.00 43 1017.4
20260506181550 71 175 0.0 3.5 0.00 0.00 0.00 46 1017.5
20260506180052 71 171 0.0 3.5 0.00 0.00 0.00 46 1017.6
20260506174545 70 171 0.0 0.0 0.00 0.00 0.00 49 1017.6
20260506173041 69 171 0.0 0.0 0.00 0.00 0.00 50 1017.7
20260506171548 69 171 0.0 0.0 0.00 0.00 0.00 53 1017.7
20260506170036 65 171 0.0 0.0 0.00 0.00 0.00 55 1017.8
20260506164528 64 170 0.0 0.0 0.00 0.00 0.00 56 1017.9
20260506163027 64 169 0.0 0.0 0.00 0.00 0.00 56 1017.9
20260506161534 63 169 0.0 0.0 0.00 0.00 0.00 62 1017.9
20260506160016 61 169 0.0 0.0 0.00 0.00 0.00 64 1018.0
20260506154512 59 179 0.0 0.0 0.00 0.00 0.00 69 1017.9
20260506153009 58 182 0.0 0.0 0.00 0.00 0.00 75 1017.9